Regional Weather Roundup
Issued by NWS

Home | Current Version | Previous Version | Graphics & Text | Print | Product List | Glossary On
Versions: 1 2 3 4 5 6 7 8 9 10 11 12 13 14 15 16 17 18 19 20 21 22 23 24 25 26 27 28 29 30 31 32 33 34 35 36 37 38 39 40 41 42 43 44 45 46 47 48 49 50
000
ASUS43 KMKX 201311
RWRWI

WISCONSIN REGIONAL WEATHER ROUNDUP
NATIONAL WEATHER SERVICE MILWAUKEE/SULLIVAN WI
800 AM CDT WED AUG 20 2014

NOTE: "FAIR" INDICATES FEW OR NO CLOUDS BELOW 12,000 FEET WITH NO
SIGNIFICANT WEATHER AND/OR OBSTRUCTIONS TO VISIBILITY.

WIZ001-002-006>008-014>016-023>028-201400-
NORTHWEST WISCONSIN

CITY           SKY/WX    TMP DP  RH WIND       PRES   REMARKS
SUPERIOR ARPT  CLOUDY    62  60  94 CALM      29.87S
ASHLAND        CLOUDY    61  59  93 SW3       29.89R
HAYWARD        CLOUDY    60  59  96 NE3       29.88S
SIREN          CLOUDY    61  60  97 E5        29.87S
RICE LAKE      FOG       60  58  96 N5        29.88S VSB 1/2
LADYSMITH      CLOUDY    61  60  94 N7        29.88S
EAU CLAIRE     CLOUDY    61  61 100 NE8       29.86R FOG
MENOMONIE      CLOUDY    62  61  96 CALM      29.88R
NEW RICHMOND   CLOUDY    61  61 100 E6        29.87R
OSCEOLA        PTSUNNY   62  62 100 E5        29.89R
$$

WIZ003>005-009-010-017-018-201400-
NORTH CENTRAL WISCONSIN

CITY           SKY/WX    TMP DP  RH WIND       PRES   REMARKS
WOODRUFF       CLOUDY    59  57  92 N3        29.88S
RHINELANDER    CLOUDY    59  57  93 CALM      29.88R
EAGLE RIVER    CLOUDY    58  57  97 N5        29.87S
LAND O LAKES   CLOUDY    58  57  99 CALM      29.89R
PHILLIPS       CLOUDY    58  57  97 CALM      29.88R
TOMAHAWK       CLOUDY    59  58  96 NW5       29.88S
MEDFORD        CLOUDY    58  58  98 N9        29.87R
MERRILL        CLOUDY    60  60  97 NW5       29.86S
$$

WIZ029-030-035-036-043>047-201400-
CENTRAL WISCONSIN

CITY           SKY/WX    TMP DP  RH WIND       PRES   REMARKS
WAUSAU         CLOUDY    61  59  93 N7        29.84F
MOSINEE        CLOUDY    59  59 100 N12       29.86S
MARSHFIELD     FOG       60  59  96 N5        29.86R VSB 1
STEVENS POINT  CLOUDY    58  58  99 N7        29.85R FOG
WAUPACA        MOSUNNY   65  64  94 N3        29.84R
WAUTOMA        FOG       64  64 100 CALM      29.86R VSB 1/4
WISC RAPIDS    SUNNY     65  62  90 CALM      29.86R
CAMP DOUGLAS   FOG       63  63 100 NW2       29.87R VSB 3/4
$$

WIZ011>013-019>022-031-037>040-048>050-201400-
NORTHEAST WISCONSIN

CITY           SKY/WX    TMP DP  RH WIND       PRES   REMARKS
ANTIGO         CLOUDY    59  59  99 NW7       29.86S
STURGEON BAY   CLOUDY    63  59  88 NW9       29.82S
GREEN BAY      PTSUNNY   64  61  90 NW3       29.83R
MANITOWOC      SUNNY     65  62  90 N5        29.83R
APPLETON       PTSUNNY   63  63 100 N7        29.84R
CLINTONVILLE   MOSUNNY   63  59  88 NW7       29.82F
OSHKOSH        SUNNY     66  63  90 N3        29.83R
$$

WIZ032>034-041-042-053>061-201400-
SOUTHWEST WISCONSIN

CITY           SKY/WX    TMP DP  RH WIND       PRES   REMARKS
LA CROSSE      CLOUDY    66  64  93 CALM      29.87R FOG
SPARTA         FOG       60  60  99 CALM      29.87R VSB 1/2
VIROQUA        FAIR      66  66 100 CALM      29.88R
BOSCOBEL       FOG       64  63  96 CALM      29.86R VSB<1/4
PRAIRIE DU CHI FOG       64  63  95 CALM      29.86R VSB<1/4
PLATTEVILLE    FAIR      67  65  91 SW3       29.88R
$$

WIZ056-057-062-063-064-067-068-201400-
SOUTH CENTRAL WISCONSIN

CITY           SKY/WX    TMP DP  RH WIND       PRES   REMARKS
BARABOO/DELLS  SUNNY     65  63  93 CALM      29.87R
LONE ROCK      FOG       66  62  87 CALM      29.86R VSB 1/4
WATERTOWN      SUNNY     66  65  96 W3        29.85R
MADISON        MOSUNNY   71  65  81 CALM      29.86R
MIDDLETON      FAIR      68  68  99 CALM      29.87R
MONROE         SUNNY     68  64  88 CALM      29.86S
JANESVILLE     MOSUNNY   68  64  88 CALM      29.86R
$$

WIZ051-052-058>065-066-070>072-201400-
SOUTHEAST WISCONSIN

CITY           SKY/WX    TMP DP  RH WIND       PRES   REMARKS
MILWAUKEE      SUNNY     70  62  76 W6        29.84R
WAUKESHA       NOT AVBL
MILWAUKEE/TIMM SUNNY     70  61  73 CALM      29.84R
RACINE         SUNNY     69  64  84 W5        29.87R
BURLINGTON     MOSUNNY   65  65  99 SW5       29.86R
KENOSHA        SUNNY     68  65  90 W3        29.85R
FOND DU LAC    SUNNY     67  62  84 CALM      29.84R
SHEBOYGAN      SUNNY     65  63  93 CALM      29.83R
WEST BEND      SUNNY     66  61  82 NW3       29.84R
JUNEAU         SUNNY     65  38  36 SW3       29.87R
$$

LSZ147-162-201400-
LAKE SUPERIOR

STATION/POSITION TIME  TEMP    WIND        PRES    WAVE
                       AIR SEA DIR/SP/G            HT/PER
                 (UTC) (F)     (DEG/KT/KT) (MB)    (FT/S)
W MID LAKE BUOY  1250   58 57  260/  6/  6 1011.0R   1
DEVILS ISLAND    1300   60     230/  8/  9 1011.9R
PORT WING        1200   61     210/  2/  3 1011.9R
SAXON HARBOR     1200   60        CALM     1011.5R
$$

LMZ867-665-643>646-201400-
LAKE MICHIGAN

STATION/POSITION TIME  TEMP    WIND        PRES    WAVE
                       AIR SEA DIR/SP/G            HT/PER
                 (UTC) (F)     (DEG/KT/KT) (MB)    (FT/S)
N MID LAKE BUOY  1250   60 62  330/ 10/ 12 1008.7R   1/ 3
NORTHPORT PIER   1200   63     340/ 10/ 12 1009.1S
SISTER BAY       1211   62     350/ 12/ 13   N/A
KEWAUNEE LAKESHO 1200   62     290/  1/  2 1008.7R
SHEBOYGAN LAKESH 1300   67 64  350/  2/  2 1010.1R
ATWATER BUOY     1300   68     350/  2     1011.6R
MILWAUKEE LAKESH 1200   68     290/  4/  6   N/A
S MID LAKE BUOY  1250   68 66  280/  4/  4 1010.3R   0
KENOSHA   LAKESH 1300   71     300/  4/  6 1010.5R
$$

TC  - TEMPERATURE IN CELSIUS
VSB - VISIBILITY IN STATUTE MILES
WCI - WIND CHILL INDEX
HX  - HEAT INDEX



USA.gov is the U.S. government's official web portal to all federal, state and local government web resources and services.